Location: Unspecified
(38.9820°N, 94.4650°W)
Time: 02:24:46
(UTC-05:00)

Hubble Space Telescope - Visible Passes

Search period start: 02 July 2016 00:00
Search period end: 12 July 2016 00:00
Orbit: 539 x 543 km, 28.5° (Epoch: 01 July)

Date Brightness Start Highest point End Pass type
(mag) Time Alt. Az. Time Alt. Az. Time Alt. Az.
02 Jul 2.5 21:41:33 10° SSW 21:44:16 17° S 21:46:01 14° SE visible
03 Jul 2.4 21:31:37 10° SW 21:34:28 18° S 21:36:56 12° SE visible
04 Jul 2.4 21:21:45 10° SW 21:24:40 19° S 21:27:35 10° SE visible
04 Jul 3.2 23:02:45 10° SW 23:03:08 11° SW 23:03:08 11° SW visible
05 Jul 2.4 21:11:55 10° SW 21:14:52 19° S 21:17:49 10° SE visible
05 Jul 3.1 22:53:15 10° SW 22:53:52 12° SW 22:53:52 12° SW visible
06 Jul 3.1 22:43:54 10° SW 22:44:34 11° SSW 22:44:34 11° SSW visible
07 Jul 3.2 22:34:58 10° SSW 22:35:14 10° SSW 22:35:14 10° SSW visible
